Regional Weather Roundup
Issued by NWS

Home | Current Version | Previous Version | Graphics & Text | Print | Product List | Glossary On
Versions: 1 2 3 4 5 6 7 8 9 10 11 12 13 14 15 16 17 18 19 20 21 22 23 24 25 26 27 28 29 30 31 32 33 34 35 36 37 38 39 40 41 42 43 44 45 46 47 48 49 50
000
ASUS43 KDMX 272207
RWRIA

WEATHER ROUNDUP FOR IOWA
NATIONAL WEATHER SERVICE DES MOINES IA
400 PM CST THU NOV 27 2014

NOTE: "FAIR" INDICATES FEW OR NO CLOUDS BELOW 12,000 FEET WITH NO
SIGNIFICANT WEATHER AND/OR OBSTRUCTIONS TO VISIBILITY.

* - THESE STATIONS ARE NOT NWS STATIONS...THUS NOT UNDER NWS
QUALITY CONTROL.  THEY ALSO DO NOT REPORT WEATHER SUCH
AS PRECIPITATION OR FOG.

IAZ001>003-012>014-020>022-031>034-043>046-272300-
   NORTHWEST IOWA

CITY           SKY/WX    TMP DP  RH WIND       PRES   REMARKS
CARROLL *      CLOUDY    10   3  72 E9        30.38F WCI  -2
CHEROKEE *     CLOUDY    10   3  72 SE9       30.35F WCI  -2
DENISON *      PTCLDY    14   1  57 SE9       30.33F WCI   2
LE MARS *      PTCLDY    14   5  67 SE9       30.32F WCI   2
ORANGE CITY *  CLEAR     12   1  62 SE7       30.30F WCI   2
SHELDON *      CLOUDY    10  -2  56 SE13      30.31F WCI  -5
SIOUX CITY     PTCLDY    19   6  57 SE17      30.32F WCI   4
SPENCER        CLOUDY     8  -2  63 SE9       30.35F WCI  -5
STORM LAKE *   CLOUDY     9   1  72 SE12      30.35S WCI  -6
$$

IAZ055>058-069>071-079>083-090>094-272300-
   SOUTHWEST IOWA

CITY           SKY/WX    TMP DP  RH WIND       PRES   REMARKS
ATLANTIC *     PTCLDY    16   3  57 SE8       30.38F WCI   5
AUDUBON *      PTCLDY    14   1  57 SE7       30.36F WCI   4
CLARINDA *     CLEAR     25  14  63 SE7       30.41S WCI  17
COUNCIL BLFS * CLEAR     21   7  53 SE13      30.34F WCI   9
CRESTON *      MOCLDY    18   7  62 E7        30.40F WCI   8
HARLAN  *      CLEAR     16   3  57 SE9       30.40F WCI   4
LAMONI         CLOUDY    21  10  62 E5        30.42S WCI  15
RED OAK *      CLOUDY    21  10  63 SE8       30.39S WCI  12
SHENANDOAH *   CLEAR     25  14  63 SE10      30.39F WCI  15
$$

IAZ047>049-059>061-072>074-084-272300-
   CENTRAL IOWA

CITY           SKY/WX    TMP DP  RH WIND       PRES   REMARKS
AMES           CLOUDY     8  -1  66 S3        30.45S
ANKENY *       CLOUDY     9  -2  61 E3        30.47R
CHARITON *     CLOUDY    16   1  53 CALM      30.45R
DES MOINES     CLOUDY    14  -1  51 CALM      30.45S
GRINNELL*      CLEAR      3  -2  78 NW3       30.46S
KNOXVILLE *    CLOUDY    12  -2  52 NE6       30.44S WCI   3
MARSHALLTOWN   CLEAR      6  -1  73 W6        30.45R WCI  -4
PELLA *        CLEAR     10   0  61 N3        30.48S
PERRY *        CLOUDY    10   3  72 E3        30.43F
$$

IAZ004>006-015-016-023>025-035-036-272300-
   NORTH CENTRAL IOWA

CITY           SKY/WX    TMP DP  RH WIND       PRES   REMARKS
ALGONA *       PTCLDY     1  -6  71 SE7       30.40F WCI -11
CLARION *      CLEAR     -2  -8  78 E3        30.41F
ESTHERVILLE    PTCLDY     0  -5  79 SE7       30.37F WCI -13
FORT DODGE *   CLOUDY     3  -2  78 E6        30.42F WCI  -8
MASON CITY     CLEAR      2  -5  72 NW3       30.43F
FOREST CITY *  CLEAR      1  -4  78 CALM      30.40F
IOWA FALLS *     N/A      5  -2  72 CALM      30.43F
$$

IAZ007>011-017>019-026>030-037>042-050>054-066-272300-
   NORTHEAST IOWA

CITY           SKY/WX    TMP DP  RH WIND       PRES   REMARKS
CEDAR RAPIDS   CLEAR     11   4  73 W9        30.44S WCI  -2
CHARLES CITY * CLEAR      5  -6  61 CALM      30.44R
CLINTON *      CLEAR     16   5  62 NW7       30.45S WCI   6
DECORAH *      CLEAR     10  -4  52 N6        30.40S WCI   1
DUBUQUE        CLEAR     14   1  56 NW9       30.39S WCI   2
MONTICELLO *   CLEAR     16   3  57 W10       30.43R WCI   3
OELWEIN *      CLEAR      9  -2  61 NW8       30.43R WCI  -4
WATERLOO         N/A      8  -1  66 NW5       30.45S WCI   0
$$

IAZ064-065-067-068-078-272300-
   EAST CENTRAL IOWA

CITY           SKY/WX    TMP DP  RH WIND       PRES   REMARKS
DAVENPORT      CLEAR     15   4  61 W13       30.45R WCI   1
IOWA CITY      CLEAR     14   3  61 NW9       30.48S WCI   2
MT. PLEASANT * PTCLDY    12   1  62 W5        30.48S WCI   4
MUSCATINE *    CLEAR     16   5  62 W12       30.49  WCI   3
QUAD CITIES    CLEAR     18   1  47 W9        30.45R WCI   7
$$

IAZ062-063-075>077-085>089-095>099-272300-
   SOUTHEAST IOWA

CITY           SKY/WX    TMP DP  RH WIND       PRES   REMARKS
BURLINGTON     PTCLDY    15  -1  49 NW7       30.47S WCI   5
FAIRFIELD *    CLEAR     10  -2  56 NW7       30.48S WCI   0
FORT MADISON * CLEAR     16   5  62 NW8       30.48S WCI   5
KEOKUK *       CLEAR     19   9  63 N9        30.47F WCI   9
OSKALOOSA *      N/A     10   1  67 CALM      30.47S
CENTERVILLE *  CLOUDY    19   7  58 CALM      30.46R
OTTUMWA        PTCLDY    13   1  59 N7        30.46S WCI   3
WASHINGTON *   CLEAR      9   3  78 W9        30.48S WCI  -5
$$

ABBREVIATIONS USED IN REMARKS
   TC - TEMPERATURES IN CELSIUS
  WCI - WIND CHILL INDEX
   HX - HEAT INDEX
  VSB - VISIBILITY
$$



USA.gov is the U.S. government's official web portal to all federal, state and local government web resources and services.